Date String (YYYY-MM-DD hh:mm:ss) UTC,Instrument flags,Ambient pressure (hPa),Sample flow (lpm),Bypass flow (lpm),Sample temperature (°C),Ambient temperature (°C),ASC tube jacket temperature (°C),LED temperature (°C),Box temperature (°C),Sample RH (%),Span deviation,Mass concentration (μg/m³),Mass concentration (μg/m³),Mass concentration (μg/m³)
DateTimeUTC,F1_M11,P_M11,Q1_M11,Q2_M11,T1_M11,T2_M11,T3_M11,T4_M11,T5_M11,U1_M11,ZSPAN_M11,X0_M11,X2_M11,X1_M11
2022-04-25 19:00:00,,0832.7,5.01,0.00,23.9,23.3,00.0,32.7,25.9,10.6,0000.0,0010.06,0005.31,0004.66
2022-04-25 19:01:00,,0832.7,5.01,0.00,24.0,23.3,00.0,32.7,25.9,10.6,0000.0,0009.82,0005.29,0004.65
2022-04-25 19:02:00,,0832.7,4.99,0.00,24.0,23.3,00.0,32.7,25.9,10.5,0000.0,0010.00,0005.32,0004.66
2022-04-25 19:03:00,,0832.8,5.00,0.00,24.0,23.3,00.0,32.8,25.9,10.6,0000.0,0009.97,0005.30,0004.65
2022-04-25 19:04:00,,0832.7,5.00,0.00,24.0,23.4,00.0,32.8,25.9,10.5,0000.0,0010.03,0005.28,0004.64
2022-04-25 19:05:00,,0832.7,4.99,0.00,24.0,23.4,00.0,32.8,25.9,10.6,0000.0,0010.45,0005.28,0004.64
2022-04-25 19:06:00,,0832.8,5.00,0.00,24.1,23.4,00.0,32.8,25.9,10.5,0000.0,0010.94,0005.30,0004.64
2022-04-25 19:07:00,,0832.7,5.01,0.00,24.1,23.4,00.0,32.8,26.0,10.5,0000.0,0011.39,0005.31,0004.63
2022-04-25 19:08:00,,0832.8,5.00,0.00,24.1,23.4,00.0,32.8,26.0,10.6,0000.0,0011.43,0005.30,0004.62
2022-04-25 19:09:00,,0832.7,5.00,0.00,24.1,23.4,00.0,32.9,26.0,10.5,0000.0,0011.36,0005.31,0004.62
2022-04-25 19:10:00,,0832.7,5.00,0.00,24.1,23.4,00.0,32.9,26.0,10.5,0000.0,0011.44,0005.31,0004.62
2022-04-25 19:11:00,,0832.7,5.00,0.00,24.1,23.5,00.0,32.9,26.0,10.9,0000.0,0011.47,0005.33,0004.62
2022-04-25 19:12:00,,0832.8,5.00,0.00,24.1,23.5,00.0,32.9,26.0,11.0,0000.0,0011.42,0005.34,0004.62
2022-04-25 19:13:00,,0832.7,5.00,0.00,24.2,23.5,00.0,32.9,26.0,11.0,0000.0,0011.44,0005.34,0004.62
2022-04-25 19:14:00,,0832.8,5.00,0.00,24.2,23.4,00.0,33.0,26.0,11.6,0000.0,0012.02,0005.37,0004.62
2022-04-25 19:15:00,,0832.8,5.00,0.00,24.1,23.4,00.0,33.0,26.0,12.4,0000.0,0012.32,0005.42,0004.64
2022-04-25 19:16:00,,0832.8,5.00,0.00,24.1,23.4,00.0,33.0,25.9,13.0,0000.0,0012.47,0005.47,0004.65
2022-04-25 19:17:00,,0832.8,5.00,0.00,24.1,23.4,00.0,33.0,25.9,13.6,0000.0,0012.51,0005.44,0004.63
2022-04-25 19:18:00,,0833.0,5.01,0.00,24.1,23.4,00.0,33.0,25.9,12.9,0000.0,0011.87,0005.40,0004.63
2022-04-25 19:19:00,,0833.0,5.00,0.00,24.1,23.4,00.0,33.0,25.9,14.2,0000.0,0011.72,0005.39,0004.64
2022-04-25 19:20:00,,0833.1,4.99,0.00,24.1,23.3,00.0,33.0,25.9,13.9,0000.0,0011.38,0005.35,0004.63
2022-04-25 19:21:00,,0833.1,5.00,0.00,24.1,23.3,00.0,33.0,25.9,13.8,0000.0,0011.21,0005.34,0004.62
2022-04-25 19:22:00,,0833.1,5.00,0.00,24.1,23.3,00.0,33.0,26.0,14.0,0000.0,0011.20,0005.34,0004.61
2022-04-25 19:23:00,,0833.1,5.00,0.00,24.1,23.3,00.0,33.0,26.0,13.7,0000.0,0011.51,0005.32,0004.60
2022-04-25 19:24:00,,0833.2,4.99,0.00,24.1,23.4,00.0,33.0,26.0,13.6,0000.0,0012.24,0005.34,0004.60
2022-04-25 19:25:00,,0833.1,5.00,0.00,24.1,23.4,00.0,33.0,26.0,14.3,0000.0,0011.87,0005.33,0004.60
2022-04-25 19:26:00,,0833.1,5.00,0.00,24.1,23.4,00.0,33.0,26.0,14.4,0000.0,0011.54,0005.28,0004.59
2022-04-25 19:27:00,,0833.1,5.00,0.00,24.1,23.4,00.0,33.0,25.9,14.5,0000.0,0011.52,0005.22,0004.60
2022-04-25 19:28:00,,0832.9,5.00,0.00,24.1,23.4,00.0,33.0,25.9,14.9,0000.0,0011.05,0005.27,0004.64
2022-04-25 19:29:00,,0832.8,5.00,0.00,24.1,23.4,00.0,33.0,25.9,14.7,0000.0,0011.37,0005.31,0004.65
2022-04-25 19:30:00,,0832.8,4.99,0.00,24.1,23.4,00.0,33.0,25.9,15.3,0000.0,0011.42,0005.31,0004.65
2022-04-25 19:31:00,,0832.8,5.00,0.00,24.1,23.3,00.0,33.0,25.9,15.3,0000.0,0011.45,0005.34,0004.65
2022-04-25 19:32:00,,0832.9,5.00,0.00,24.1,23.3,00.0,33.0,25.8,14.6,0000.0,0011.25,0005.34,0004.64
2022-04-25 19:33:00,,0832.8,5.01,0.00,24.0,23.3,00.0,33.0,25.7,14.6,0000.0,0011.18,0005.38,0004.64
2022-04-25 19:34:00,,0832.8,5.00,0.00,24.0,23.3,00.0,33.0,25.8,14.7,0000.0,0010.87,0005.37,0004.64
2022-04-25 19:35:00,,0832.8,5.00,0.00,24.0,23.3,00.0,33.0,25.9,15.0,0000.0,0010.74,0005.33,0004.63
2022-04-25 19:36:00,,0832.8,5.01,0.00,24.0,23.2,00.0,33.0,25.8,15.7,0000.0,0011.03,0005.28,0004.60
2022-04-25 19:37:00,,0832.8,5.01,0.00,24.0,23.2,00.0,33.0,25.8,15.6,0000.0,0011.24,0005.29,0004.60
2022-04-25 19:38:00,,0832.8,5.00,0.00,24.0,23.2,00.0,33.0,25.7,15.3,0000.0,0010.66,0005.31,0004.58
2022-04-25 19:39:00,,0832.8,4.99,0.00,24.0,23.2,00.0,32.9,25.7,15.3,0000.0,0010.55,0005.25,0004.55
2022-04-25 19:40:00,,0832.8,5.00,0.00,23.9,23.2,00.0,32.9,25.7,15.7,0000.0,0010.39,0005.20,0004.52
2022-04-25 19:41:00,,0832.7,5.00,0.00,24.0,23.2,00.0,32.9,25.7,16.5,0000.0,0010.59,0005.18,0004.51
2022-04-25 19:42:00,,0832.8,5.00,0.00,23.9,23.2,00.0,32.9,25.7,16.6,0000.0,0010.98,0005.15,0004.52
2022-04-25 19:43:00,,0832.8,5.00,0.00,23.9,23.2,00.0,32.9,25.7,16.2,0000.0,0010.93,0005.15,0004.54
2022-04-25 19:44:00,,0832.8,5.00,0.00,23.9,23.2,00.0,32.9,25.7,16.5,0000.0,0010.89,0005.15,0004.55
2022-04-25 19:45:00,,0832.7,5.00,0.00,23.9,23.2,00.0,32.9,25.7,16.3,0000.0,0011.02,0005.15,0004.54
2022-04-25 19:46:00,,0832.8,4.99,0.00,23.9,23.2,00.0,32.9,25.7,15.2,0000.0,0010.52,0005.21,0004.57
2022-04-25 19:47:00,,0832.8,5.00,0.00,23.9,23.2,00.0,32.9,25.7,15.2,0000.0,0010.30,0005.28,0004.60
2022-04-25 19:48:00,,0832.7,5.00,0.00,24.0,23.3,00.0,32.9,25.7,16.1,0000.0,0010.24,0005.29,0004.60
2022-04-25 19:49:00,,0832.8,5.00,0.00,24.0,23.3,00.0,32.9,25.8,15.8,0000.0,0010.91,0005.27,0004.60
2022-04-25 19:50:00,,0832.8,4.99,0.00,24.0,23.3,00.0,32.9,25.8,15.4,0000.0,0011.01,0005.30,0004.62
2022-04-25 19:51:00,,0832.7,5.00,0.00,24.0,23.3,00.0,32.9,25.8,16.1,0000.0,0010.84,0005.31,0004.63
2022-04-25 19:52:00,,0832.7,5.00,0.00,24.0,23.3,00.0,32.9,25.8,16.3,0000.0,0010.66,0005.34,0004.65
2022-04-25 19:53:00,,0832.7,5.00,0.00,24.0,23.4,00.0,32.9,25.9,16.1,0000.0,0010.04,0005.31,0004.61
2022-04-25 19:54:00,,0832.8,5.00,0.00,24.0,23.4,00.0,32.9,25.9,15.9,0000.0,0010.11,0005.29,0004.58
2022-04-25 19:55:00,,0832.7,5.00,0.00,24.0,23.4,00.0,32.9,25.9,16.2,0000.0,0010.19,0005.28,0004.55
2022-04-25 19:56:00,,0832.8,5.00,0.00,24.1,23.4,00.0,32.9,25.9,16.1,0000.0,0009.91,0005.21,0004.52
2022-04-25 19:57:00,,0832.7,5.00,0.00,24.1,23.4,00.0,32.9,25.9,16.0,0000.0,0009.85,0005.13,0004.46
2022-04-25 19:58:00,,0832.7,5.00,0.00,24.1,23.4,00.0,33.0,26.0,15.9,0000.0,0009.56,0005.07,0004.41
2022-04-25 19:59:00,,0832.9,5.00,0.00,24.1,23.4,00.0,33.0,26.0,15.8,0000.0,0009.28,0005.04,0004.38
